Regional Weather Roundup
Issued by NWS

Home | Current Version | Previous Version | Graphics & Text | Print | Product List | Glossary On
Versions: 1 2 3 4 5 6 7 8 9 10 11 12 13 14 15 16 17 18 19 20 21 22 23 24 25 26 27 28 29 30 31 32 33 34 35 36 37 38 39 40 41 42 43 44 45 46 47 48 49 50
000
ASUS43 KFSD 261810
RWRSD

WEATHER ROUNDUP FOR SOUTH DAKOTA
NATIONAL WEATHER SERVICE SIOUX FALLS SD
1200 PM CST SUN FEB 26 2017

NOTE: "FAIR" INDICATES FEW OR NO CLOUDS BELOW 12,000 FEET WITH NO
SIGNIFICANT WEATHER AND/OR OBSTRUCTIONS TO VISIBILITY.


SDZ001>005-009-010-012>017-261900-
NORTHWEST AND NORTH CENTRAL SOUTH DAKOTA

CITY           SKY/WX    TMP DP  RH WIND       PRES   REMARKS
BUFFALO          N/A     33  19  56 NW26      29.65S WCI  20
FAITH            N/A     36  18  48 W16       29.74F
MOBRIDGE       CLOUDY    28  21  75 S9        29.76F WCI  19
$$

SDZ012>016-024>037-041>051-057-063-072>074-261900-
SOUTHWEST AND SOUTH CENTRAL SOUTH DAKOTA

CITY           SKY/WX    TMP DP  RH WIND       PRES   REMARKS
RAPID CTY ARPT MOSUNNY   36  15  42 SW9       29.77S
PIERRE         SUNNY     38  19  46 W8        29.80F
CUSTER         SUNNY     24   4  42 W13G18    29.70S WCI  12
ELLSWORTH AFB  MOSUNNY   36  14  41 NW14      29.77R
PHILIP         SUNNY     41  14  33 W16       29.80F
PINE RIDGE     SUNNY     25   8  48 W14       29.84F WCI  13
SPEARFISH      FAIR      32  12  43 W17G28    29.74F WCI  21
WINNER         FAIR      35  18  49 W12       29.85S WCI  27
$$

SDZ004>011-016>023-039-040-261900-
NORTHEAST SOUTH DAKOTA

CITY           SKY/WX    TMP DP  RH WIND       PRES   REMARKS
ABERDEEN       MOSUNNY   23  15  71 E3        29.84S
WATERTOWN      SUNNY     28  16  60 N6        29.81R WCI  22
BROOKINGS      SUNNY     34  19  54 NW8       29.82R WCI  27
SISSETON         N/A     21  14  74 N5        29.85S WCI  15
$$

SDZ017-020-022-023-036>040-048>070-261900-
SOUTHEAST SOUTH DAKOTA

CITY           SKY/WX    TMP DP  RH WIND       PRES   REMARKS
SIOUX FALLS    SUNNY     32  25  75 SW6       29.87R WCI  26
HURON          MOSUNNY   31  21  66 VRB3      29.86R
CHAMBERLAIN    SUNNY     39  20  46 SW10      29.84F
MITCHELL       MOSUNNY   36  24  62 SW8       29.87S
YANKTON        SUNNY     30  19  64 W10       29.90S WCI  21
$$

ABBREVIATIONS USED IN REMARKS
   TC - TEMPERATURE IN CELSIUS
  WCI - WIND CHILL INDEX
   HX - HEAT INDEX
  VSB - VISIBILITY





USA.gov is the U.S. government's official web portal to all federal, state and local government web resources and services.